EW7144 Weather Reports


Display with metric or nautical units.
time (UTC)temp
F
wind
direction
speed
MPH
gust
MPH
rain 1hr
in
rain 24hr
in
rain mn
in
humidity
%
barometer
mb
20260905222406 56 352 12.0 18.0 0.01 0.12 0.12 90 1009.2
20260905221906 56 351 10.0 20.0 0.01 0.12 0.12 90 1009.3
20260905221407 56 333 9.0 17.0 0.01 0.12 0.12 90 1009.3
20260905220907 56 345 9.0 15.0 0.01 0.12 0.12 90 1009.4
20260905220407 56 334 9.0 18.0 0.01 0.12 0.12 90 1009.5
20260905215907 56 348 7.0 18.0 0.01 0.12 0.12 90 1009.6
20260905215407 56 352 8.0 15.0 0.01 0.12 0.12 90 1009.7
20260905214907 56 336 10.0 20.0 0.02 0.12 0.12 90 1009.7
20260905214406 56 343 8.0 14.0 0.02 0.12 0.12 90 1009.7
20260905213907 56 346 8.0 18.0 0.03 0.12 0.12 90 1009.9
20260905213407 56 346 10.0 18.0 0.02 0.11 0.11 90 1010.0
20260905212907 56 326 9.0 15.0 0.02 0.11 0.11 90 1010.1
20260905211911 56 342 12.0 21.0 0.03 0.11 0.11 90 1010.2
20260905211407 56 356 8.0 17.0 0.03 0.11 0.11 90 1010.3
20260905210906 56 348 10.0 20.0 0.04 0.11 0.11 90 1010.3
20260905210406 56 349 10.0 20.0 0.05 0.11 0.11 90 1010.4
20260905205907 56 349 12.0 18.0 0.05 0.11 0.11 90 1010.5
20260905205407 56 351 12.0 18.0 0.05 0.11 0.11 90 1010.7
20260905204907 56 346 10.0 20.0 0.05 0.10 0.10 90 1010.7
20260905204406 56 346 10.0 17.0 0.04 0.09 0.09 90 1010.8
20260905203907 56 354 12.0 20.0 0.04 0.09 0.09 90 1010.9
20260905203406 56 348 12.0 21.0 0.04 0.09 0.09 90 1010.9
20260905202907 56 345 10.0 16.0 0.05 0.09 0.09 90 1011.0
20260905202406 56 341 9.0 18.0 0.06 0.09 0.09 90 1011.0
20260905201907 56 348 12.0 18.0 0.05 0.08 0.08 90 1011.0
20260905201407 56 340 9.0 21.0 0.05 0.08 0.08 90 1010.9
20260905200907 56 320 10.0 18.0 0.04 0.07 0.07 90 1010.9
20260905200407 56 343 12.0 21.0 0.06 0.06 0.06 90 1011.0
20260905195907 56 349 11.0 18.0 0.06 0.06 0.06 90 1011.0
20260905195406 56 332 10.0 20.0 0.06 0.06 0.06 90 1011.0
20260905194907 56 343 9.0 15.0 0.06 0.06 0.06 90 1011.1
20260905194407 56 347 9.0 17.0 0.06 0.06 0.06 90 1011.0
20260905193907 56 335 7.0 18.0 0.05 0.05 0.05 90 1011.0
20260905193406 56 348 10.0 20.0 0.05 0.05 0.05 90 1011.1
20260905190907 56 343 11.0 18.0 0.03 0.03 0.03 90 1011.0
20260905190406 56 340 9.0 16.0 0.00 0.00 0.00 90 1011.0
20260905185906 56 346 8.0 17.0 0.00 0.00 0.00 90 1011.1
20260905185407 56 351 9.0 20.0 0.00 0.00 0.00 90 1011.0
20260905184406 56 348 8.0 15.0 0.00 0.00 0.00 90 1011.2
20260905183406 56 352 7.0 15.0 0.00 0.00 0.00 89 1011.2
20260905182906 56 335 6.0 12.0 0.00 0.00 0.00 89 1011.2
20260905182406 56 345 7.0 13.0 0.00 0.00 0.00 89 1011.2
20260905180906 56 345 5.0 12.0 0.00 0.00 0.00 89 1011.1
20260905180407 56 342 5.0 12.0 0.00 0.00 0.00 89 1011.0
20260905175907 56 340 4.0 16.0 0.00 0.00 0.00 89 1011.0
20260905175406 56 350 9.0 14.0 0.00 0.00 0.00 89 1011.2
20260905174406 56 340 7.0 16.0 0.00 0.00 0.00 89 1011.2
20260905173907 56 351 8.0 14.0 0.00 0.00 0.00 89 1011.2
20260905173407 56 348 9.0 13.0 0.00 0.00 0.00 89 1011.1
20260905172906 56 351 8.0 15.0 0.00 0.00 0.00 89 1011.0
20260905172406 56 340 9.0 14.0 0.00 0.00 0.00 89 1011.0
20260905171907 56 338 10.0 20.0 0.00 0.00 0.00 89 1011.0
20260905170906 56 345 9.0 18.0 0.00 0.00 0.00 89 1011.1
20260905170407 56 347 8.0 14.0 0.00 0.00 0.00 89 1011.1
20260905165906 57 339 6.0 16.0 0.00 0.00 0.00 89 1011.2
20260905165406 57 350 9.0 20.0 0.00 0.00 0.00 89 1011.2
20260905164906 56 342 9.0 15.0 0.00 0.00 0.00 89 1011.1
20260905163906 56 329 7.0 17.0 0.00 0.00 0.00 89 1011.0
20260905163406 56 345 10.0 20.0 0.00 0.00 0.00 89 1010.8
20260905162906 56 335 5.0 16.0 0.00 0.00 0.00 89 1010.7
20260905162406 55 347 5.0 14.0 0.00 0.00 0.00 89 1010.7
20260905161906 55 326 5.0 13.0 0.00 0.00 0.00 89 1010.6
20260905160907 56 330 5.0 17.0 0.00 0.00 0.00 89 1010.5
20260905160406 56 344 10.0 20.0 0.00 0.00 0.00 89 1010.4
20260905155906 56 341 12.0 20.0 0.00 0.00 0.00 89 1010.5
20260905154907 56 351 8.0 14.0 0.00 0.00 0.00 89 1010.6
20260905154406 56 343 6.0 13.0 0.00 0.00 0.00 89 1010.6
20260905153907 56 342 5.0 14.0 0.00 0.00 0.00 89 1010.7
20260905153406 56 347 7.0 14.0 0.00 0.00 0.00 89 1010.7
20260905152910 56 338 6.0 16.0 0.00 0.00 0.00 89 1010.6
20260905152407 56 285 7.0 17.0 0.00 0.00 0.00 89 1010.6
20260905151907 56 319 6.0 15.0 0.00 0.00 0.00 89 1010.6
20260905150906 56 331 4.0 14.0 0.00 0.00 0.00 89 1010.6
20260905150407 56 301 6.0 14.0 0.00 0.00 0.00 89 1010.6
20260905145907 56 317 4.0 15.0 0.00 0.00 0.00 89 1010.6
20260905145406 56 335 5.0 16.0 0.00 0.00 0.00 88 1010.6
20260905144906 56 242 5.0 14.0 0.00 0.00 0.00 88 1010.6
20260905144407 56 317 6.0 13.0 0.00 0.00 0.00 88 1010.5
20260905143907 56 318 6.0 13.0 0.00 0.00 0.00 88 1010.6
20260905143407 56 294 6.0 15.0 0.00 0.00 0.00 88 1010.8
20260905142907 56 281 7.0 14.0 0.00 0.00 0.00 88 1010.8
20260905142407 56 307 5.0 12.0 0.00 0.00 0.00 88 1010.9
20260905141906 56 321 6.0 15.0 0.00 0.00 0.00 88 1011.0
20260905141407 56 299 6.0 15.0 0.00 0.00 0.00 88 1011.0
20260905140907 56 318 5.0 15.0 0.00 0.00 0.00 88 1011.0
20260905140407 56 325 4.0 15.0 0.00 0.00 0.00 88 1011.0
20260905135906 56 307 6.0 16.0 0.00 0.00 0.00 88 1010.9
20260905135406 56 343 7.0 22.0 0.00 0.00 0.00 88 1011.1
20260905134906 56 330 7.0 16.0 0.00 0.00 0.00 88 1011.1
20260905134406 56 320 5.0 13.0 0.00 0.00 0.00 88 1011.3
20260905133906 56 335 10.0 21.0 0.00 0.00 0.00 88 1011.4
20260905132906 56 320 8.0 22.0 0.00 0.00 0.00 87 1011.7
20260905132407 56 333 10.0 18.0 0.00 0.00 0.00 87 1011.8
20260905131906 56 338 8.0 20.0 0.00 0.00 0.00 87 1011.8
20260905130907 56 346 10.0 18.0 0.00 0.00 0.00 87 1011.9
20260905130406 56 336 11.0 20.0 0.00 0.00 0.00 87 1012.0
20260905125907 56 343 9.0 26.0 0.00 0.00 0.00 87 1011.9
20260905125406 56 344 11.0 23.0 0.00 0.00 0.00 87 1011.9
20260905124906 56 350 14.0 25.0 0.00 0.00 0.00 87 1011.9
20260905124406 56 324 9.0 20.0 0.00 0.00 0.00 87 1011.9
20260905123906 56 305 7.0 23.0 0.00 0.00 0.00 87 1012.0
20260905123406 56 334 7.0 16.0 0.00 0.00 0.00 87 1012.0
20260905122906 56 287 8.0 23.0 0.00 0.00 0.00 87 1012.0
20260905122406 56 327 7.0 20.0 0.00 0.00 0.00 87 1011.9
20260905120907 56 287 9.0 23.0 0.00 0.00 0.00 87 1012.0
20260905120406 56 337 10.0 23.0 0.00 0.00 0.00 87 1012.1
20260905115908 56 303 12.0 22.0 0.00 0.00 0.00 87 1012.2
20260905115406 56 334 13.0 25.0 0.00 0.00 0.00 87 1012.1
20260905114906 56 324 10.0 25.0 0.00 0.00 0.00 87 1012.1
20260905113907 56 335 7.0 20.0 0.00 0.00 0.00 86 1012.1
20260905113406 56 247 11.0 26.0 0.00 0.00 0.00 86 1012.1
20260905112906 56 332 11.0 21.0 0.00 0.00 0.00 86 1012.3
20260905112406 56 343 9.0 20.0 0.00 0.00 0.00 86 1012.4
20260905111907 56 290 12.0 23.0 0.00 0.00 0.00 86 1012.4
20260905111406 56 322 12.0 24.0 0.00 0.00 0.00 87 1012.4
20260905110906 56 309 10.0 22.0 0.00 0.00 0.00 87 1012.4
20260905110406 56 340 8.0 26.0 0.00 0.00 0.00 87 1012.3
20260905105906 56 337 12.0 25.0 0.00 0.00 0.00 87 1012.3
20260905105406 56 341 12.0 20.0 0.00 0.00 0.00 87 1012.4
20260905104910 56 329 12.0 21.0 0.00 0.00 0.00 87 1012.2
20260905104406 56 344 9.0 23.0 0.00 0.00 0.00 87 1012.2
20260905103406 55 336 9.0 25.0 0.00 0.00 0.00 87 1012.2
20260905102907 55 312 8.0 20.0 0.00 0.00 0.00 87 1012.4
20260905102407 55 341 10.0 24.0 0.00 0.00 0.00 87 1012.5
20260905101907 55 333 10.0 23.0 0.00 0.00 0.00 87 1012.4
20260905101406 55 321 9.0 18.0 0.00 0.00 0.00 87 1012.4
20260905100906 55 308 8.0 25.0 0.00 0.00 0.00 87 1012.4
20260905100406 55 334 10.0 20.0 0.00 0.00 0.00 87 1012.4
20260905095906 55 322 5.0 14.0 0.00 0.00 0.00 86 1012.4
20260905094906 56 228 6.0 15.0 0.00 0.00 0.00 85 1012.4
20260905093906 56 317 7.0 17.0 0.00 0.00 0.00 85 1012.2
20260905093406 55 243 9.0 16.0 0.00 0.00 0.00 85 1012.2
20260905092906 55 283 9.0 20.0 0.00 0.00 0.00 85 1012.2
20260905092406 56 264 9.0 17.0 0.00 0.00 0.00 85 1012.4
20260905091910 55 279 7.0 20.0 0.00 0.00 0.00 85 1012.4
20260905091407 55 311 9.0 23.0 0.00 0.00 0.00 85 1012.5
20260905090906 56 242 8.0 16.0 0.00 0.00 0.00 85 1012.5
20260905090406 56 333 7.0 22.0 0.00 0.00 0.00 85 1012.6
20260905085908 56 297 6.0 18.0 0.00 0.00 0.00 85 1012.5
20260905085407 56 290 5.0 17.0 0.00 0.00 0.00 85 1012.4
20260905084906 56 344 6.0 17.0 0.00 0.00 0.00 85 1012.3
20260905084410 55 237 8.0 23.0 0.00 0.00 0.00 85 1012.1
20260905083408 55 279 9.0 20.0 0.00 0.00 0.00 85 1011.8
20260905082906 55 277 10.0 23.0 0.00 0.00 0.00 84 1011.9
20260905082407 55 310 11.0 26.0 0.00 0.00 0.00 84 1012.0
20260905081908 55 320 11.0 23.0 0.00 0.00 0.00 84 1012.0
20260905081407 56 312 10.0 25.0 0.00 0.00 0.00 84 1011.9
20260905080907 56 318 10.0 26.0 0.00 0.00 0.00 83 1012.0
20260905080406 55 322 12.0 21.0 0.00 0.00 0.00 83 1012.0
20260905075906 55 309 9.0 22.0 0.00 0.00 0.00 83 1012.0
20260905075407 55 323 11.0 25.0 0.00 0.00 0.00 84 1012.0
20260905074906 55 325 10.0 22.0 0.00 0.00 0.00 84 1012.0
20260905074406 56 334 10.0 21.0 0.00 0.00 0.00 85 1012.1
20260905073906 55 327 12.0 24.0 0.00 0.00 0.00 85 1012.0
20260905073406 55 349 7.0 21.0 0.00 0.00 0.00 85 1012.0
20260905072906 55 335 9.0 20.0 0.00 0.00 0.00 85 1011.9
20260905072406 55 339 7.0 22.0 0.00 0.00 0.00 85 1011.9
20260905071907 55 331 9.0 21.0 0.00 0.00 0.00 85 1011.9
20260905071406 55 311 9.0 21.0 0.00 0.00 0.00 86 1011.9
20260905070906 55 252 8.0 20.0 0.00 0.00 0.00 86 1011.9
20260905070406 55 228 9.0 22.0 0.00 0.00 0.00 86 1011.8
20260905065907 55 231 9.0 24.0 0.00 0.00 0.00 86 1011.8
20260905065407 55 319 6.0 26.0 0.00 0.00 0.00 86 1011.8
20260905064906 55 332 6.0 20.0 0.00 0.00 0.00 86 1011.8
20260905064406 55 320 6.0 21.0 0.00 0.00 0.00 86 1011.8
20260905063906 55 344 11.0 26.0 0.00 0.00 0.00 86 1011.8
20260905062906 55 306 8.0 20.0 0.00 0.00 0.00 86 1011.7
20260905062407 55 344 7.0 24.0 0.00 0.00 0.00 86 1011.6
20260905061906 55 299 9.0 20.0 0.00 0.00 0.00 86 1011.4
20260905061406 55 228 10.0 24.0 0.00 0.00 0.00 86 1011.3
20260905060907 55 320 11.0 23.0 0.00 0.00 0.00 85 1011.4
20260905060406 55 343 12.0 28.0 0.00 0.00 0.00 85 1011.3
20260905055906 55 0 13.0 25.0 0.00 0.00 0.00 84 1011.3
20260905055406 56 316 14.0 25.0 0.00 0.00 0.00 84 1011.2
20260905054407 56 343 15.0 30.0 0.00 0.00 0.00 83 1011.3
20260905053906 56 343 11.0 26.0 0.00 0.00 0.00 82 1011.2
20260905053406 56 254 11.0 29.0 0.00 0.00 0.00 81 1011.1
20260905052906 56 330 13.0 29.0 0.00 0.00 0.00 80 1011.2
20260905052406 56 345 14.0 33.0 0.00 0.00 0.00 80 1011.3
20260905051407 56 340 13.0 26.0 0.00 0.00 0.00 81 1011.4
20260905050907 56 337 14.0 26.0 0.00 0.00 0.00 81 1011.7
20260905050406 56 340 14.0 25.0 0.00 0.00 0.00 82 1011.6
20260905045906 57 348 11.0 26.0 0.00 0.00 0.00 83 1011.7
20260905045407 57 326 14.0 22.0 0.00 0.00 0.00 82 1011.9
20260905044906 57 334 12.0 26.0 0.00 0.00 0.00 82 1012.0
20260905043406 57 323 12.0 26.0 0.00 0.00 0.00 82 1012.1
20260905042906 57 347 13.0 20.0 0.00 0.00 0.00 82 1012.1
20260905042407 57 346 13.0 25.0 0.00 0.00 0.00 82 1012.1
20260905041907 57 335 9.0 22.0 0.00 0.00 0.00 82 1012.1
20260905041407 57 351 13.0 28.0 0.00 0.00 0.00 82 1012.1
20260905035906 57 340 12.0 30.0 0.00 0.00 0.00 81 1012.3
20260905035407 57 334 12.0 26.0 0.00 0.00 0.00 82 1012.3
20260905034907 57 344 12.0 23.0 0.00 0.00 0.00 80 1012.4
20260905034406 57 348 16.0 24.0 0.00 0.00 0.00 79 1012.4
20260905033406 58 346 14.0 35.0 0.00 0.00 0.00 80 1012.7
20260905032906 58 329 9.0 24.0 0.00 0.00 0.00 80 1012.9
20260905032406 58 342 9.0 22.0 0.00 0.00 0.00 80 1012.9
20260905031907 57 336 7.0 20.0 0.00 0.00 0.00 80 1012.9
20260905031406 57 352 9.0 18.0 0.00 0.00 0.00 80 1012.9
20260905030906 58 337 12.0 22.0 0.00 0.00 0.00 79 1012.9
20260905030406 58 323 13.0 22.0 0.00 0.00 0.00 78 1012.9
20260905025906 58 325 9.0 22.0 0.00 0.00 0.00 79 1012.9
20260905025406 58 325 12.0 20.0 0.00 0.00 0.00 78 1013.0
20260905024907 58 308 10.0 21.0 0.00 0.00 0.00 78 1012.9
20260905023907 58 326 12.0 26.0 0.00 0.00 0.00 79 1013.2
20260905023406 58 311 11.0 22.0 0.00 0.00 0.00 79 1013.2
20260905022906 58 325 10.0 23.0 0.00 0.00 0.00 80 1013.3
20260905022406 57 332 9.0 20.0 0.00 0.00 0.00 81 1013.3
20260905021906 57 303 7.0 22.0 0.00 0.00 0.00 82 1013.3
20260905021406 56 319 11.0 24.0 0.00 0.00 0.00 81 1013.3
20260905020906 56 313 11.0 20.0 0.00 0.00 0.00 82 1013.3
20260905020406 56 334 9.0 20.0 0.00 0.00 0.00 83 1013.4
20260905015906 55 338 7.0 18.0 0.00 0.00 0.00 83 1013.4
20260905015406 56 344 8.0 23.0 0.00 0.00 0.00 84 1013.5
20260905014906 56 311 7.0 18.0 0.00 0.00 0.00 85 1013.6
20260905014406 55 324 9.0 21.0 0.00 0.00 0.00 85 1013.8
20260905013406 55 297 8.0 24.0 0.00 0.00 0.00 83 1014.0
20260905012906 55 341 10.0 26.0 0.00 0.00 0.00 83 1014.2
20260905011406 55 329 6.0 26.0 0.00 0.00 0.00 84 1014.2
20260905010907 55 292 10.0 20.0 0.00 0.00 0.00 86 1014.3
20260905010407 55 319 5.0 16.0 0.00 0.00 0.00 86 1014.4
20260905005906 55 314 2.0 10.0 0.00 0.00 0.00 87 1014.5
20260905005406 54 301 3.0 12.0 0.00 0.00 0.00 87 1014.6
20260905004906 54 322 6.0 16.0 0.00 0.00 0.00 87 1014.7
20260905004407 54 267 6.0 16.0 0.00 0.00 0.00 87 1014.8
20260905003907 54 314 5.0 14.0 0.00 0.00 0.00 87 1014.9
20260905003407 54 256 6.0 15.0 0.00 0.00 0.00 87 1015.0
20260905002907 54 251 6.0 16.0 0.00 0.00 0.00 87 1015.1
20260905002406 54 310 5.0 17.0 0.00 0.00 0.00 87 1015.4
20260905001906 54 242 8.0 20.0 0.00 0.00 0.00 87 1015.4
20260905001406 54 325 7.0 21.0 0.00 0.00 0.00 86 1015.5
20260905000907 54 346 12.0 22.0 0.00 0.00 0.00 85 1015.4
20260905000407 55 296 5.0 12.0 0.00 0.00 0.00 85 1015.3
20260904235407 55 346 8.0 16.0 0.00 0.00 0.00 84 1015.5
20260904234906 55 345 8.0 15.0 0.00 0.00 0.00 84 1015.5
20260904234406 55 349 9.0 16.0 0.00 0.00 0.00 85 1015.4
20260904233906 55 343 6.0 14.0 0.00 0.00 0.00 86 1015.4
20260904233406 55 343 6.0 15.0 0.00 0.00 0.00 86 1015.5
20260904232906 55 341 7.0 14.0 0.00 0.00 0.00 87 1015.6
20260904232406 54 324 6.0 13.0 0.00 0.00 0.00 87 1015.6
20260904231906 53 303 7.0 15.0 0.00 0.00 0.00 87 1015.8
20260904231406 53 347 6.0 13.0 0.00 0.00 0.00 87 1015.9
20260904230906 53 315 4.0 16.0 0.00 0.00 0.00 87 1015.8
20260904230406 53 341 3.0 12.0 0.00 0.00 0.00 87 1015.9
20260904225906 52 321 5.0 13.0 0.00 0.00 0.00 87 1015.9
20260904225406 52 269 5.0 15.0 0.00 0.00 0.00 87 1015.9
20260904224906 52 211 5.0 13.0 0.00 0.00 0.00 86 1016.0
20260904224407 53 237 6.0 15.0 0.00 0.00 0.00 86 1016.1
20260904223907 53 245 3.0 9.0 0.00 0.00 0.00 85 1016.1
20260904222906 54 234 5.0 14.0 0.00 0.00 0.00 83 1016.0